Cumberland, WV

3:28 PM EDT on September 22, 2019 (GMT -0400)
Greater Cumberland Regional

Weather History for KCBE - August, 2019

Change the Weather History Date:

Sunday, August 18, 2019

  Actual Average (KMRB) Record (KMRB)
Temperature  
Mean Temperature 79 °F -  
Max Temperature 93 °F 83 °F 98 °F (1932)
Min Temperature 65 °F 62 °F 43 °F (1981)
Cooling Degree Days 14    
Growing Degree Days 29 (Base 50)    
Moisture  
Dew Point 67 °F    
Average Humidity 73    
Maximum Humidity 99    
Minimum Humidity 41    
Precipitation  
Precipitation 0.00 in - - ()
Sea Level Pressure  
Sea Level Pressure 30.05 in    
Wind  
Wind Speed 2 mph (WSW)    
Max Wind Speed 15 mph    
Max Gust Speed 22 mph    
Visibility 9 miles    
Events Fog    
Averages and records for this station are not official NWS values.
T = Trace of Precipitation, MM = Missing Value Source: NWS Daily Summary

Daily Weather History Graph

Daily Weather History Graph

Search for Another Location

Airport or City:

Astronomy

Aug. 18, 2019 Rise Set
Actual Time 6:29 AM EDT 8:07 PM EDT
Civil Twilight 6:01 AM EDT 8:35 PM EDT
Nautical Twilight 5:26 AM EDT 9:10 PM EDT
Astronomical Twilight 4:50 AM EDT 9:46 PM EDT
Moon 10:01 PM EDT (8/18) 9:12 AM EDT (8/18)
Length of Visible Light 14h 34m
Length of Day
13h 37m
Waning Gibbous, 91% of the Moon is Illuminated
Aug 18
Waning Gibbous
Aug 23
Last Quarter
Aug 30
New
Sep 5
First Quarter
Sep 14
Full

Hourly Weather History & Observations

Time (EDT) Temp. Heat Index Dew Point Humidity Pressure Visibility Wind Dir Wind Speed Gust Speed Precip Events Conditions
12:00 AM 72.9 °F - 68.5 °F 86% 30.04 in 10.0 mi WSW 3.5 mph - N/A   Clear
12:20 AM 71.8 °F - 68.4 °F 89% 30.05 in 10.0 mi WSW 3.5 mph - N/A   Clear
12:40 AM 71.1 °F - 67.8 °F 89% 30.04 in 10.0 mi WSW 8.1 mph - N/A   Clear
1:00 AM 71.2 °F - 67.8 °F 89% 30.05 in 10.0 mi Calm Calm - N/A   Clear
1:20 AM 71.1 °F - 67.6 °F 89% 30.04 in 10.0 mi WSW 4.6 mph - N/A   Clear
1:40 AM 71.2 °F - 67.5 °F 88% 30.04 in 10.0 mi WSW 4.6 mph - N/A   Clear
2:00 AM 70.3 °F - 67.5 °F 91% 30.04 in 10.0 mi Calm Calm - N/A   Clear
2:20 AM 69.6 °F - 67.5 °F 93% 30.03 in 10.0 mi Calm Calm - N/A   Clear
2:40 AM 68.7 °F - 67.6 °F 96% 30.03 in 7.0 mi Calm Calm - N/A   Clear
3:00 AM 68.2 °F - 67.1 °F 96% 30.04 in 10.0 mi Calm Calm - N/A   Clear
3:20 AM 68.2 °F - 66.9 °F 96% 30.04 in 10.0 mi Calm Calm - N/A   Clear
3:40 AM 68.4 °F - 66.7 °F 95% 30.04 in 10.0 mi Calm Calm - N/A   Clear
4:00 AM 67.5 °F - 66.6 °F 97% 30.04 in 7.0 mi Calm Calm - N/A   Clear
4:20 AM 67.3 °F - 66.6 °F 98% 30.04 in 7.0 mi Calm Calm - N/A   Clear
4:40 AM 66.7 °F - 66.0 °F 98% 30.05 in 5.0 mi Calm Calm - N/A   Clear
5:00 AM 66.6 °F - 65.8 °F 98% 30.05 in 7.0 mi Calm Calm - N/A   Clear
5:20 AM 66.2 °F - 65.5 °F 98% 30.06 in 7.0 mi WSW 3.5 mph - N/A   Clear
5:40 AM 66.6 °F - 65.7 °F 97% 30.06 in 10.0 mi Calm Calm - N/A   Clear
6:00 AM 66.4 °F - 65.3 °F 96% 30.07 in 7.0 mi Calm Calm - N/A   Clear
6:15 AM 66.0 °F - 65.5 °F 98% 30.07 in 0.2 mi Calm Calm - N/A Fog Fog
6:40 AM 65.7 °F - 65.1 °F 98% 30.07 in 4.0 mi Calm Calm - N/A   Scattered Clouds
7:00 AM 66.0 °F - 65.7 °F 99% 30.07 in 5.0 mi Calm Calm - N/A   Clear
7:20 AM 66.6 °F - 65.8 °F 98% 30.08 in 7.0 mi Calm Calm - N/A   Clear
7:40 AM 67.8 °F - 66.6 °F 96% 30.08 in 10.0 mi Calm Calm - N/A   Clear
8:00 AM 69.3 °F - 66.9 °F 92% 30.09 in 10.0 mi Calm Calm - N/A   Clear
8:20 AM 70.3 °F - 67.3 °F 90% 30.09 in 10.0 mi Calm Calm - N/A   Clear
8:40 AM 72.0 °F - 67.8 °F 87% 30.10 in 10.0 mi Calm Calm - N/A   Clear
9:00 AM 73.2 °F - 68.4 °F 85% 30.09 in 10.0 mi Calm Calm - N/A   Clear
9:20 AM 74.3 °F - 68.5 °F 82% 30.09 in 10.0 mi Calm Calm - N/A   Clear
9:40 AM 75.7 °F - 68.2 °F 77% 30.09 in 10.0 mi Calm Calm - N/A   Clear
10:00 AM 77.2 °F - 68.7 °F 75% 30.09 in 10.0 mi Calm Calm - N/A   Clear
10:20 AM 79.0 °F - 68.4 °F 70% 30.09 in 10.0 mi Calm Calm - N/A   Clear
10:40 AM 80.1 °F 82.6 °F 67.8 °F 66% 30.09 in 10.0 mi Calm Calm - N/A   Clear
11:00 AM 81.9 °F 85.2 °F 69.3 °F 65% 30.09 in 10.0 mi Calm Calm - N/A   Clear
11:20 AM 82.0 °F 85.5 °F 69.3 °F 65% 30.09 in 10.0 mi Calm Calm - N/A   Clear
11:40 AM 84.2 °F 88.1 °F 69.4 °F 61% 30.08 in 10.0 mi WSW 3.5 mph - N/A   Clear
12:00 PM 85.1 °F 89.4 °F 69.6 °F 60% 30.07 in 10.0 mi WSW 3.5 mph - N/A   Clear
12:20 PM 86.9 °F 89.9 °F 67.5 °F 52% 30.07 in 10.0 mi WSW 4.6 mph - N/A   Clear
12:35 PM 87.3 °F 90.5 °F 67.5 °F 52% 30.07 in 10.0 mi WSW 4.6 mph - N/A   Clear
1:00 PM 89.1 °F 92.1 °F 67.1 °F 48% 30.06 in 10.0 mi WSW 3.5 mph - N/A   Clear
1:20 PM 89.6 °F 93.4 °F 68.4 °F 49% 30.06 in 10.0 mi WSW 4.6 mph - N/A   Clear
1:35 PM 89.8 °F 94.2 °F 69.1 °F 50% 30.05 in 10.0 mi WSW 4.6 mph - N/A   Clear
2:00 PM 90.1 °F 94.0 °F 68.2 °F 48% 30.05 in 10.0 mi Calm Calm - N/A   Clear
2:20 PM 90.5 °F 93.8 °F 67.1 °F 46% 30.05 in 10.0 mi Calm Calm - N/A   Clear
2:40 PM 90.9 °F 94.0 °F 67.1 °F 45% 30.03 in 10.0 mi Calm Calm - N/A   Clear
3:00 PM 92.5 °F 95.4 °F 66.4 °F 42% 30.03 in 10.0 mi Calm Calm - N/A   Clear
3:20 PM 91.9 °F 94.5 °F 65.7 °F 42% 30.02 in 10.0 mi Calm Calm - N/A   Clear
3:40 PM 92.3 °F 95.1 °F 65.8 °F 42% 30.02 in 10.0 mi Calm Calm - N/A   Clear
4:00 PM 90.3 °F 93.4 °F 66.9 °F 46% 30.02 in 10.0 mi Calm Calm - N/A   Clear
4:20 PM 93.4 °F 96.6 °F 66.4 °F 41% 30.02 in 10.0 mi WSW 3.5 mph - N/A   Clear
4:40 PM 92.8 °F 96.1 °F 66.6 °F 42% 30.01 in 10.0 mi WSW 6.9 mph - N/A   Clear
5:00 PM 92.8 °F 95.6 °F 66.2 °F 41% 30.02 in 10.0 mi WSW 8.1 mph - N/A   Clear
5:20 PM 86.0 °F 87.3 °F 64.0 °F 48% 30.03 in 10.0 mi WSW 15.0 mph 21.9 mph N/A   Clear
5:40 PM 83.7 °F 85.5 °F 65.3 °F 54% 30.03 in 10.0 mi WSW 10.4 mph - N/A   Clear
6:00 PM 83.1 °F 85.0 °F 65.3 °F 55% 30.01 in 10.0 mi WSW 15.0 mph - N/A   Clear
6:20 PM 82.2 °F 84.6 °F 66.7 °F 59% 30.00 in 10.0 mi WSW 9.2 mph - N/A   Clear
6:40 PM 82.0 °F 84.5 °F 66.9 °F 60% 30.00 in 10.0 mi WSW 6.9 mph - N/A   Clear
7:00 PM 81.1 °F 83.2 °F 66.2 °F 60% 30.02 in 10.0 mi WSW 12.7 mph - N/A   Clear
7:20 PM 81.7 °F 84.0 °F 66.4 °F 60% 30.03 in 10.0 mi WSW 11.5 mph - N/A   Scattered Clouds
7:40 PM 80.2 °F 82.1 °F 65.3 °F 60% 30.03 in 10.0 mi WSW 5.8 mph - N/A   Clear
8:00 PM 79.3 °F - 65.3 °F 62% 30.03 in 10.0 mi WSW 4.6 mph - N/A   Clear
8:20 PM 78.6 °F - 65.7 °F 64% 30.04 in 10.0 mi Calm Calm - N/A   Clear
8:40 PM 78.1 °F - 65.3 °F 65% 30.04 in 10.0 mi Calm Calm - N/A   Clear
9:00 PM 77.2 °F - 65.7 °F 67% 30.05 in 10.0 mi Calm Calm - N/A   Clear
9:20 PM 75.9 °F - 66.0 °F 71% 30.04 in 10.0 mi WSW 3.5 mph - N/A   Clear
9:40 PM 74.7 °F - 66.2 °F 75% 30.04 in 10.0 mi Calm Calm - N/A   Clear
10:00 PM 73.6 °F - 66.2 °F 78% 30.05 in 10.0 mi Calm Calm - N/A   Clear
10:20 PM 75.6 °F - 65.5 °F 71% 30.05 in 10.0 mi WSW 3.5 mph - N/A   Clear
10:40 PM 72.7 °F - 66.2 °F 80% 30.04 in 10.0 mi WSW 4.6 mph - N/A   Clear
11:00 PM 72.1 °F - 66.0 °F 81% 30.04 in 10.0 mi Calm Calm - N/A   Clear
11:20 PM 70.2 °F - 66.2 °F 87% 30.05 in 10.0 mi WSW 3.5 mph - N/A   Clear
11:40 PM 70.5 °F - 66.4 °F 87% 30.05 in 10.0 mi Calm Calm - N/A   Clear